Regional Weather Roundup
Issued by NWS

Home | Current Version | Previous Version | Graphics & Text | Print | Product List | Glossary On
Versions: 1 2 3 4 5 6 7 8 9 10 11 12 13 14 15 16 17 18 19 20 21 22 23 24 25 26 27 28 29 30 31 32 33 34 35 36 37 38 39 40 41 42 43 44 45 46 47 48 49 50
000
ASUS43 KFSD 201502
RWRSD

WEATHER ROUNDUP FOR SOUTH DAKOTA
NATIONAL WEATHER SERVICE SIOUX FALLS SD
1000 AM CDT SUN APR 20 2014

NOTE: "FAIR" INDICATES FEW OR NO CLOUDS BELOW 12,000 FEET WITH NO
SIGNIFICANT WEATHER AND/OR OBSTRUCTIONS TO VISIBILITY.


SDZ001>005-009-010-012>017-201600-
NORTHWEST AND NORTH CENTRAL SOUTH DAKOTA

CITY           SKY/WX    TMP DP  RH WIND       PRES   REMARKS
FAITH            N/A     59  32  36 S20       29.91F
MOBRIDGE       SUNNY     54  33  45 SE10      29.94F
$$

SDZ012>016-024>037-041>051-057-063-072>074-201600-
SOUTHWEST AND SOUTH CENTRAL SOUTH DAKOTA

CITY           SKY/WX    TMP DP  RH WIND       PRES   REMARKS
RAPID CTY ARPT SUNNY     56  35  45 CALM      29.91S
PIERRE         SUNNY     57  29  34 SE9       29.96S
CUSTER         SUNNY     58  36  43 W5        29.98S
ELLSWORTH AFB  SUNNY     56  37  49 N10       29.91S
PHILIP         MOSUNNY   62  37  39 S15       29.92F
PINE RIDGE     SUNNY     62  43  49 SW9       29.94F
WINNER         FAIR      67  27  22 SE18      29.97F
$$

SDZ004>011-016>023-039-040-201600-
NORTHEAST SOUTH DAKOTA

CITY           SKY/WX    TMP DP  RH WIND       PRES   REMARKS
ABERDEEN       SUNNY     51  36  56 VRB3      30.01S
WATERTOWN      SUNNY     57  35  43 E7        30.00S
$$

SDZ017-020-022-023-036>040-048>070-201600-
SOUTHEAST SOUTH DAKOTA

CITY           SKY/WX    TMP DP  RH WIND       PRES   REMARKS
SIOUX FALLS    MOSUNNY   66  32  28 E16       29.99F
HURON          SUNNY     60  33  36 SE6       29.99F
CHAMBERLAIN      N/A     59  29  31 SE12      29.98F
MITCHELL       SUNNY     58  36  43 CALM      30.00F
YANKTON        MOSUNNY   63  41  45 NE7       29.98S
$$

ABBREVIATIONS USED IN REMARKS
   TC - TEMPERATURE IN CELSIUS
  WCI - WIND CHILL INDEX
   HX - HEAT INDEX
  VSB - VISIBILITY




USA.gov is the U.S. government's official web portal to all federal, state and local government web resources and services.